Chariton, IA

3:07 AM CDT on May 24, 2017 (GMT -0500)
Chariton Municipal

Weather History for KCNC - September, 2013

Change the Weather History Date:

Tuesday, September 10, 2013

  Actual Average Record
Temperature  
Mean Temperature 82 °F -  
Max Temperature 95 °F 80 °F 95 °F (1983)
Min Temperature 68 °F 54 °F 34 °F (1976)
Cooling Degree Days 16    
Growing Degree Days 32 (Base 50)    
Moisture  
Dew Point 62 °F    
Average Humidity 54    
Maximum Humidity 83    
Minimum Humidity 30    
Precipitation  
Precipitation 0.00 in - - ()
Sea Level Pressure  
Sea Level Pressure 29.98 in    
Wind  
Wind Speed 10 mph (SSW)    
Max Wind Speed 20 mph    
Max Gust Speed 28 mph    
Visibility 10 miles    
Events      
Averages and records for this station are not official NWS values.
T = Trace of Precipitation, MM = Missing Value Source: NWS Daily Summary

Daily Weather History Graph

Daily Weather History Graph

Search for Another Location

Airport or City:

Trip Planner

Search our weather history database for the weather conditions in past years. The results will help you decide how hot, cold, wet, or windy it might be!

Date:

Astronomy

Sep. 10, 2013 Rise Set
Actual Time 6:49 AM CDT 7:30 PM CDT
Civil Twilight 6:21 AM CDT 7:58 PM CDT
Nautical Twilight 5:48 AM CDT 8:31 PM CDT
Astronomical Twilight 5:14 AM CDT 9:04 PM CDT
Moon 12:18 PM CDT (9/10) 10:31 PM CDT (9/10)
Length of Visible Light 13h 36m
Length of Day
12h 41m
Waxing Crescent, 28% of the Moon is Illuminated
Sep 10
Waxing Crescent
Sep 12
First Quarter
Sep 19
Full
Sep 26
Last Quarter
Oct 4
New

Hourly Weather History & Observations

Time (CDT) Temp. Heat Index Dew Point Humidity Pressure Visibility Wind Dir Wind Speed Gust Speed Precip Events Conditions
12:15 AM 75.2 °F - 60.8 °F 61% 29.92 in 10.0 mi SSW 8.1 mph - N/A   Clear
12:35 AM 73.4 °F - 60.8 °F 65% 29.92 in 10.0 mi SSW 6.9 mph - N/A   Clear
12:55 AM 73.4 °F - 60.8 °F 65% 29.92 in 10.0 mi SSW 6.9 mph - N/A   Clear
1:15 AM 73.4 °F - 60.8 °F 65% 29.93 in 10.0 mi SSW 8.1 mph - N/A   Clear
1:35 AM 75.2 °F - 60.8 °F 61% 29.93 in 10.0 mi SSW 8.1 mph - N/A   Clear
1:55 AM 73.4 °F - 60.8 °F 65% 29.93 in 10.0 mi SSW 6.9 mph - N/A   Clear
2:15 AM 73.4 °F - 60.8 °F 65% 29.94 in 10.0 mi SSW 9.2 mph - N/A   Clear
2:35 AM 75.2 °F - 60.8 °F 61% 29.94 in 10.0 mi SSW 8.1 mph - N/A   Clear
2:55 AM 73.4 °F - 60.8 °F 65% 29.94 in 10.0 mi SSW 9.2 mph - N/A   Clear
3:15 AM 75.2 °F - 60.8 °F 61% 29.95 in 10.0 mi SSW 8.1 mph - N/A   Clear
3:35 AM 75.2 °F - 60.8 °F 61% 29.95 in 10.0 mi SSW 8.1 mph - N/A   Clear
3:55 AM 73.4 °F - 60.8 °F 65% 29.95 in 10.0 mi SSW 6.9 mph - N/A   Clear
4:15 AM 73.4 °F - 60.8 °F 65% 29.95 in 10.0 mi SSW 8.1 mph - N/A   Clear
4:35 AM 73.4 °F - 60.8 °F 65% 29.96 in 10.0 mi SSW 8.1 mph - N/A   Clear
4:55 AM 71.6 °F - 60.8 °F 69% 29.96 in 10.0 mi SSW 6.9 mph - N/A   Clear
5:15 AM 69.8 °F - 60.8 °F 73% 29.96 in 10.0 mi SSW 6.9 mph - N/A   Clear
5:35 AM 68.0 °F - 60.8 °F 78% 29.96 in 10.0 mi SSW 8.1 mph - N/A   Clear
5:55 AM 68.0 °F - 60.8 °F 78% 29.97 in 10.0 mi SSW 6.9 mph - N/A   Partly Cloudy
6:15 AM 68.0 °F - 60.8 °F 78% 29.97 in 10.0 mi SSW 6.9 mph - N/A   Clear
6:35 AM 68.0 °F - 60.8 °F 78% 29.98 in 8.0 mi SSW 6.9 mph - N/A   Clear
6:55 AM 68.0 °F - 60.8 °F 78% 29.98 in 6.0 mi SSW 6.9 mph - N/A   Haze
7:15 AM 68.0 °F - 62.6 °F 83% 29.99 in 6.0 mi SSW 8.1 mph - N/A   Haze
7:35 AM 69.8 °F - 62.6 °F 78% 29.99 in 7.0 mi SSW 8.1 mph - N/A   Clear
7:55 AM 71.6 °F - 62.6 °F 73% 29.99 in 7.0 mi SSW 9.2 mph - N/A   Clear
8:15 AM 73.4 °F - 62.6 °F 69% 30.00 in 7.0 mi SSW 9.2 mph - N/A   Clear
8:35 AM 75.2 °F - 62.6 °F 65% 30.00 in 8.0 mi SW 9.2 mph - N/A   Clear
8:55 AM 78.8 °F - 64.4 °F 61% 30.00 in 9.0 mi SSW 12.7 mph 18.4 mph N/A   Clear
9:15 AM 80.6 °F 81.8 °F 62.6 °F 54% 30.00 in 10.0 mi SSW 12.7 mph 20.7 mph N/A   Clear
9:35 AM 80.6 °F 82.3 °F 64.4 °F 58% 30.00 in 10.0 mi SSW 16.1 mph - N/A   Clear
9:55 AM 84.2 °F 85.6 °F 64.4 °F 51% 30.01 in 10.0 mi SSW 13.8 mph 20.7 mph N/A   Clear
10:15 AM 86.0 °F 87.3 °F 64.4 °F 48% 30.00 in 10.0 mi SSW 15.0 mph 23.0 mph N/A   Clear
10:35 AM 86.0 °F 86.6 °F 62.6 °F 45% 30.00 in 9.0 mi SW 16.1 mph - N/A   Clear
10:55 AM 87.8 °F 89.4 °F 64.4 °F 46% 30.00 in 9.0 mi SW 16.1 mph 21.9 mph N/A   Clear
11:15 AM 89.6 °F 91.1 °F 64.4 °F 43% 30.00 in 10.0 mi SSW 15.0 mph 23.0 mph N/A   Clear
11:35 AM 89.6 °F 91.1 °F 64.4 °F 43% 29.99 in 10.0 mi SSW 17.3 mph 23.0 mph N/A   Clear
11:55 AM 91.4 °F 93.2 °F 64.4 °F 41% 29.99 in 10.0 mi SW 17.3 mph - N/A   Clear
12:15 PM 91.4 °F 92.1 °F 62.6 °F 38% 29.99 in 10.0 mi SW 15.0 mph 27.6 mph N/A   Clear
12:35 PM 93.2 °F 94.9 °F 64.4 °F 38% 29.99 in 10.0 mi SW 16.1 mph 26.5 mph N/A   Clear
12:55 PM 93.2 °F 94.1 °F 62.6 °F 36% 29.99 in 10.0 mi SW 12.7 mph 25.3 mph N/A   Clear
1:15 PM 95.0 °F 96.0 °F 62.6 °F 34% 29.99 in 10.0 mi SW 16.1 mph 26.5 mph N/A   Clear
1:35 PM 95.0 °F 96.0 °F 62.6 °F 34% 29.99 in 10.0 mi WSW 15.0 mph 26.5 mph N/A   Clear
1:55 PM 95.0 °F 96.0 °F 62.6 °F 34% 29.98 in 10.0 mi SW 12.7 mph - N/A   Partly Cloudy
2:15 PM 93.2 °F 93.3 °F 60.8 °F 34% 29.98 in 10.0 mi SW 16.1 mph - N/A   Partly Cloudy
2:35 PM 95.0 °F 95.2 °F 60.8 °F 32% 29.97 in 10.0 mi SW 18.4 mph 26.5 mph N/A   Partly Cloudy
2:55 PM 95.0 °F 95.2 °F 60.8 °F 32% 29.97 in 10.0 mi SSW 17.3 mph 24.2 mph N/A   Clear
3:15 PM 95.0 °F 94.4 °F 59.0 °F 30% 29.96 in 10.0 mi SW 15.0 mph 26.5 mph N/A   Clear
3:35 PM 95.0 °F 94.4 °F 59.0 °F 30% 29.96 in 10.0 mi WSW 19.6 mph 27.6 mph N/A   Clear
3:55 PM 95.0 °F 94.4 °F 59.0 °F 30% 29.96 in 10.0 mi SW 12.7 mph 24.2 mph N/A   Clear
4:15 PM 95.0 °F 95.2 °F 60.8 °F 32% 29.96 in 10.0 mi WSW 17.3 mph 25.3 mph N/A   Clear
4:35 PM 95.0 °F 94.4 °F 59.0 °F 30% 29.96 in 10.0 mi SW 16.1 mph 23.0 mph N/A   Clear
4:55 PM 95.0 °F 95.2 °F 60.8 °F 32% 29.95 in 10.0 mi SW 15.0 mph 21.9 mph N/A   Clear
5:15 PM 95.0 °F 95.2 °F 60.8 °F 32% 29.95 in 10.0 mi WSW 12.7 mph 24.2 mph N/A   Clear
5:35 PM 93.2 °F 93.3 °F 60.8 °F 34% 29.95 in 10.0 mi SW 12.7 mph 19.6 mph N/A   Clear
5:55 PM 93.2 °F 93.3 °F 60.8 °F 34% 29.95 in 10.0 mi SW 10.4 mph 19.6 mph N/A   Clear
6:15 PM 93.2 °F 93.3 °F 60.8 °F 34% 29.95 in 10.0 mi SW 9.2 mph 15.0 mph N/A   Clear
6:35 PM 91.4 °F 91.4 °F 60.8 °F 36% 29.96 in 10.0 mi SW 8.1 mph - N/A   Clear
6:55 PM 89.6 °F 90.1 °F 62.6 °F 40% 29.96 in 10.0 mi SW 6.9 mph - N/A   Clear
7:15 PM 87.8 °F 88.5 °F 62.6 °F 43% 29.96 in 9.0 mi SSW 6.9 mph - N/A   Clear
7:35 PM 86.0 °F 86.1 °F 60.8 °F 43% 29.97 in 10.0 mi SSW 6.9 mph - N/A   Clear
7:55 PM 80.6 °F 81.8 °F 62.6 °F 54% 29.97 in 7.0 mi SSW 6.9 mph - N/A   Clear
8:15 PM 80.6 °F 82.3 °F 64.4 °F 58% 29.99 in 6.0 mi SSW 6.9 mph - N/A   Haze
8:35 PM 78.8 °F - 64.4 °F 61% 29.99 in 9.0 mi South 6.9 mph - N/A   Clear
8:55 PM 78.8 °F - 64.4 °F 61% 30.00 in 10.0 mi SSW 6.9 mph - N/A   Clear
9:15 PM 78.8 °F - 62.6 °F 57% 30.01 in 10.0 mi SSW 6.9 mph - N/A   Clear
9:35 PM 77.0 °F - 62.6 °F 61% 30.01 in 10.0 mi SSW 8.1 mph - N/A   Clear
9:55 PM 77.0 °F - 64.4 °F 65% 30.02 in 10.0 mi SSW 8.1 mph - N/A   Clear
10:15 PM 77.0 °F - 64.4 °F 65% 30.02 in 10.0 mi SSW 8.1 mph - N/A   Clear
10:35 PM 77.0 °F - 64.4 °F 65% 30.03 in 10.0 mi SSW 6.9 mph - N/A   Clear
10:55 PM 77.0 °F - 64.4 °F 65% 30.03 in 10.0 mi SSW 9.2 mph - N/A   Clear
11:15 PM 77.0 °F - 64.4 °F 65% 30.02 in 10.0 mi SSW 10.4 mph - N/A   Clear
11:35 PM 77.0 °F - 64.4 °F 65% 30.03 in 10.0 mi SSW 9.2 mph - N/A   Clear
11:55 PM 77.0 °F - 64.4 °F 65% 30.03 in 10.0 mi SSW 10.4 mph - N/A   Clear